Regional Weather Roundup
Issued by NWS

Home | Current Version | Previous Version | Graphics & Text | Print | Product List | Glossary On
Versions: 1 2 3 4 5 6 7 8 9 10 11 12 13 14 15 16 17 18 19 20 21 22 23 24 25 26 27 28 29 30 31 32 33 34 35 36 37 38 39 40 41 42 43 44 45 46 47 48 49 50
000
ASUS43 KMKX 031621
RWRWI

WISCONSIN REGIONAL WEATHER ROUNDUP
NATIONAL WEATHER SERVICE MILWAUKEE/SULLIVAN WI
1100 AM CDT THU SEP 03 2015

NOTE: "FAIR" INDICATES FEW OR NO CLOUDS BELOW 12,000 FEET WITH NO
SIGNIFICANT WEATHER AND/OR OBSTRUCTIONS TO VISIBILITY.

WIZ001-002-006>008-014>016-023>028-031700-
NORTHWEST WISCONSIN

CITY           SKY/WX    TMP DP  RH WIND       PRES   REMARKS
SUPERIOR ARPT  FOG       60  60 100 NE7       30.00S VSB 1/2
ASHLAND        CLOUDY    65  65 100 NW5       30.01S
HAYWARD        CLOUDY    69  64  84 E9        30.00S
SIREN          SUNNY     72  65  79 E8        29.97S
CUMBERLAND     CLOUDY    68  64  88 E9        29.98S
RICE LAKE      CLOUDY    71  65  81 E6        29.99S
CHETEK         CLOUDY   N/A N/A N/A NE6       29.98S
LADYSMITH      PTSUNNY   74  65  73 NE7       30.00F
EAU CLAIRE     CLOUDY    71  66  84 NE8       29.95S
MENOMONIE      CLOUDY    70  67  91 NE6       29.97R
NEW RICHMOND   CLOUDY    73  68  84 E9        29.96R
OSCEOLA        SUNNY     76  73  89 SE10      29.97R
$$

WIZ003>005-009-010-017-018-031700-
NORTH CENTRAL WISCONSIN

CITY           SKY/WX    TMP DP  RH WIND       PRES   REMARKS
MANITOWISH WTR SUNNY     72  65  77 NE5       30.01F
ARBOR VITAE    SUNNY     74  64  71 E7        30.01S
WOODRUFF       SUNNY     74  64  71 E7        30.01S
RHINELANDER    CLOUDY    71  63  75 VRB5      30.02R
EAGLE RIVER    PTSUNNY   71  62  74 NE7       30.01S
LAND O LAKES   PTSUNNY   73  64  73 E6        30.03S
PHILLIPS       MOSUNNY   72  65  77 NE6       30.00S
TOMAHAWK       PTSUNNY   68  63  82 NE3       30.01R
MEDFORD        CLOUDY    68  65  90 NE7       30.00S
MERRILL        CLOUDY    69  65  88 NE7       30.00S
$$

WIZ029-030-035-036-043>047-031700-
CENTRAL WISCONSIN

CITY           SKY/WX    TMP DP  RH WIND       PRES   REMARKS
WAUSAU         CLOUDY    70  64  81 N5        29.98R
MOSINEE        CLOUDY    68  66  94 N5        29.99S
MARSHFIELD     CLOUDY    71  63  75 NE7       29.98S
STEVENS POINT  CLOUDY    68  64  87 NE6       29.98S
WAUPACA        CLOUDY    73  68  84 CALM      29.96S
WAUTOMA        CLOUDY    71  68  90 N8        29.96S
WISC RAPIDS    CLOUDY    71  64  78 NE7       29.98S
CAMP DOUGLAS   CLOUDY    73  73 100 VRB5      29.95S
$$

WIZ011>013-019>022-031-037>040-048>050-031700-
NORTHEAST WISCONSIN

CITY           SKY/WX    TMP DP  RH WIND       PRES   REMARKS
ANTIGO         CLOUDY    67  65  92 N9        30.00R
SHAWANO        NOT AVBL
OCONTO         CLOUDY    69  69 100 N7        29.94R
STURGEON BAY   CLOUDY    66  64  94 N9        29.96R
GREEN BAY      CLOUDY    75  69  81 N10       29.94R
MANITOWOC      CLOUDY    72  67  84 MISG      29.93R
APPLETON       CLOUDY    70  66  88 N9        29.94R
CLINTONVILLE   CLOUDY    72  64  78 N6        29.95S
OSHKOSH        CLOUDY    71  65  81 N9        29.95R
$$

WIZ032>034-041-042-053>061-031700-
SOUTHWEST WISCONSIN

CITY           SKY/WX    TMP DP  RH WIND       PRES   REMARKS
LA CROSSE      SUNNY     82  71  69 E7        29.92S HX  86
SPARTA         PTSUNNY   80  69  70 NE5       29.94S HX  82
VIROQUA          N/A     81  74  79 NE3       29.95S HX  86
BOSCOBEL       SUNNY     84  72  67 CALM      29.92F HX  89
PRAIRIE DU CHI SUNNY     82  69  65 CALM      29.92S HX  85
PLATTEVILLE    SUNNY     81  74  77 NW3       29.95S HX  87
$$

WIZ056-057-062-063-064-067-068-031700-
SOUTH CENTRAL WISCONSIN

CITY           SKY/WX    TMP DP  RH WIND       PRES   REMARKS
REEDSBURG      MOSUNNY   79  72  77 CALM      29.93S HX  83
BARABOO/DELLS  PTSUNNY   80  68  67 CALM      29.94S HX  82
LONE ROCK      SUNNY     82  71  69 CALM      29.94S HX  86
MINERAL POINT  SUNNY     82  72  69 W3        29.95S HX  87
MADISON        MOSUNNY   82  71  69 CALM      29.92F HX  86
MIDDLETON      SUNNY     83  70  63 W5        29.94S HX  88
WATERTOWN      SUNNY     80  75  84 NW5       29.92F HX  86
MONROE         SUNNY     81  70  69 W7        29.95S HX  84
JANESVILLE     MOSUNNY   84  70  61 W9        29.93S HX  88
$$

WIZ051-052-058>065-066-070>072-031700-
SOUTHEAST WISCONSIN

CITY           SKY/WX    TMP DP  RH WIND       PRES   REMARKS
MILWAUKEE      MOSUNNY   82  69  64 W6        29.92S HX  85
WAUKESHA       MOSUNNY   79  70  73 SW6       29.95R HX  81
MILWAUKEE/TIMM MOSUNNY   81  68  65 W6        29.93S HX  83
RACINE         MOSUNNY   83  70  64 SW6       29.94S HX  87
BURLINGTON     SUNNY     80  69  68 W5        29.94S HX  83
KENOSHA        CLOUDY    83  71  67 W9        29.94S HX  87
FOND DU LAC    CLOUDY    72  67  84 N8        29.95R
SHEBOYGAN      CLOUDY    73  68  84 N9        29.93R
WEST BEND      CLOUDY    77  68  73 CALM      29.94R
JUNEAU         CLOUDY    76  70  83 N5        29.95R
$$

LSZ147-162-031700-
LAKE SUPERIOR

STATION/POSITION TIME  TEMP    WIND        PRES    WAVE
                       AIR SEA DIR/SP/G            HT/PER
                 (UTC) (F)     (DEG/KT/KT) (MB)    (FT/S)
W MID LAKE BUOY  1550   58 57   40/  6/  6 1016.3F   0
DEVILS ISLAND    1600   57      50/  6/  7 1016.6R
PORT WING        1500   59      30/  9/ 10 1015.9S
SAXON HARBOR     1500   62        CALM     1015.6
$$

LMZ867-665-643>646-031700-
LAKE MICHIGAN

STATION/POSITION TIME  TEMP    WIND        PRES    WAVE
                       AIR SEA DIR/SP/G            HT/PER
                 (UTC) (F)     (DEG/KT/KT) (MB)    (FT/S)
CHAMBERS ISLAND  1540   64     350/ 10/ 11 1013.9R
S GREEN BAY BUOY 1600   67 66   20/ 14/ 17 1015.0
N MID LAKE BUOY  1550   67 66  120/  8/  8 1013.1R   2/ 4
NORTHPORT PIER   1500   67      30/  7/ 10 1013.5R
SISTER BAY       1411   68      70/  6/  9   N/A
ALGOMA LAKESHORE 1544           70/  9/ 11   N/A
KEWAUNEE LAKESHO 1600   71     330/  6/  9   N/A
SHEBOYGAN LAKESH 1600   65      50/  2/  3 1013.7R
PORT WASHINGTON  1500   80     340/  7/ 11 1013.5S
ATWATER BUOY     1600   70      20/  4/  4 1014.6R
MILWAUKEE LAKESH 1610   81     290/  5/  7   N/A
S MID LAKE BUOY  1550   72 71  220/  8/ 10 1013.1R   1/ 3
KENOSHA   LAKESH 1600   81     320/  6/ 10 1013.2S
$$

TC  - TEMPERATURE IN CELSIUS
VSB - VISIBILITY IN STATUTE MILES
WCI - WIND CHILL INDEX
HX  - HEAT INDEX




USA.gov is the U.S. government's official web portal to all federal, state and local government web resources and services.